Flag for Brazil Weather past 2 weeks in Sorocaba, São Paulo, Brazil

Now
88 °F

Scattered clouds.


Feels Like: 89 °F
Forecast: 70 / 89 °F
Wind: 7 mph from West

Location: Campinas Aeroporto

Current Time: Feb 1, 2015 at 4:23:49 PM

Latest Report: Feb 1, 2015 at 4:00 PM


Visibility: N/A

Pressure: 30.04 "Hg

Humidity: 46%

Dew point: 64 °F

Location of SorocabaLocation

Historic Weather in Sorocaba — Graph

°F

Sorocaba temperature yesterday

Maximum temperature yesterday: 86 °F (at 4:00 PM)
Minimum temperature yesterday: 68 °F (at 5:00 AM)
Average temperature yesterday: 76 °F

Past Weeks' High & Low Weather Summary

 TemperatureHumidityPressure
High99 °F (Jan 19, 5:00 PM)100% (Jan 21, 3:00 AM)30.12 "Hg (Jan 21, 3:00 AM)
Low41 °F (Jan 21, 10:00 PM)22% (Jan 19, 5:00 PM)29.86 "Hg (Jan 20, 6:00 PM)
Average78 °F66%30.02 "Hg
* Reported Jan 17 3:00 PM — Feb 1 3:00 PM, Sorocaba, Weather by CustomWeather, © 2014

Note: Actual official high and low records may vary slightly from our data, if they occured in-between our weather recording intervals... More about our weather records

Advertising

Sorocaba weather history for previous 24 hours

 ConditionsComfort  
Time TempWeatherWind HumidityBarometerVisibility
3:00 PM
Feb 1
86 °FScattered clouds.7 mph49%30.04 "HgN/A
2:00 PM86 °FScattered clouds.7 mph49%30.07 "HgN/A
1:00 PM86 °FScattered clouds.2 mph49%30.09 "HgN/A
12:00 PM82 °FPassing clouds.3 mph55%30.09 "HgN/A
11:00 AM81 °FPassing clouds.6 mph58%30.12 "HgN/A
10:00 AM77 °FPassing clouds.9 mph69%30.09 "HgN/A
9:00 AM75 °FPassing clouds.8 mph74%30.09 "HgN/A
8:00 AM73 °FPassing clouds.8 mph78%30.07 "HgN/A
7:00 AM70 °FSunny.10 mph88%30.04 "Hg10 mi
6:00 AM72 °FClear.10 mph83%30.04 "Hg10 mi
5:00 AM70 °FClear.8 mph88%30.04 "Hg10 mi
4:00 AM72 °FClear.10 mph83%30.04 "Hg10 mi
3:00 AM72 °FClear.13 mph83%30.04 "Hg10 mi
2:00 AM72 °FClear.12 mph83%30.04 "Hg10 mi
1:00 AM72 °FClear.12 mph83%30.07 "Hg10 mi
12:00 AM73 °FClear.14 mph78%30.09 "Hg10 mi
11:00 PM
Jan 31
73 °FClear.13 mph78%30.09 "Hg10 mi
10:00 PM73 °FClear.17 mph78%30.07 "Hg10 mi
9:00 PM75 °FPassing clouds.20 mph69%30.07 "HgN/A
8:00 PM77 °FPassing clouds.18 mph69%30.04 "HgN/A
7:00 PM79 °FPassing clouds.14 mph65%30.07 "HgN/A
6:00 PM82 °FPassing clouds.13 mph58%30.04 "HgN/A
5:00 PM84 °FScattered clouds.12 mph58%30.04 "HgN/A
4:00 PM86 °FScattered clouds.12 mph52%30.04 "HgN/A
Weather by CustomWeather, © 2014

See weather overviewHow to use our weather pages